Dewpoint
51 49 48 48 49 47 47 46 44 42 42 38 42 44 45 46 47 48 48 50 51 52 51 48 45 43 42 42 40 39 38 38 37 38 38 38 38 39
51 49 48 48 48 47 47 46 45 42 42 36 36 40 44 45 46 45 46 48 50 51 48 46 44 42 41 40 39 38 37 36 36 36 36 36 37 37
51 49 48 48 46 47 47 46 43 42 41 32 32 38 43 43 43 43 45 46 47 48 46 45 43 42 40 39 38 36 36 35 34 34 35 35 36 36
50 49 47 46 47 46 46 45 42 39 37 32 32 37 40 42 41 41 43 44 44 47 46 44 42 41 40 39 37 36 34 33 33 33 33 33 34 35
49 48 47 46 46 45 45 44 39 36 35 34 32 34 36 39 38 37 37 38 41 46 46 44 42 41 40 38 37 35 34 32 32 32 31 32 32 33
50 48 46 46 46 45 45 43 38 35 35 36 33 38 39 39 40 39 38 36 37 40 43 42 42 41 40 39 37 35 33 32 31 30 29 30 31 32
50 48 47 45 45 45 44 43 37 35 35 34 34 33 34 39 41 40 40 34 33 33 34 35 37 37 37 38 37 36 33 32 31 29 29 29 30 30
49 48 47 45 45 46 45 43 40 37 35 34 33 35 38 39 41 38 33 37 35 31 31 32 32 32 33 33 37 36 33 32 31 29 28 28 28 29
49 47 46 45 45 45 45 43 42 41 40 36 33 34 36 38 40 37 35 34 32 27 30 30 29 31 31 30 37 37 35 33 32 29 29 27 27 27
48 45 45 45 45 44 42 39 38 38 38 34 34 33 34 38 39 37 36 26 25 27 28 27 26 29 29 30 34 36 35 35 32 29 28 25 26 27
48 45 43 44 45 44 40 38 37 35 38 37 37 37 38 40 39 32 30 31 23 23 26 25 24 25 24 24 26 35 35 36 33 31 29 24 24 26
48 47 43 43 45 43 40 38 36 34 34 34 36 37 38 38 38 34 32 32 25 22 25 23 23 23 21 23 24 29 33 35 34 33 25 23 23 23
46 45 44 43 44 43 41 38 38 35 35 33 33 33 33 35 34 30 30 32 26 25 26 24 23 24 24 23 24 26 28 28 26 25 23 21 22 22
46 45 43 42 43 42 41 41 41 37 34 32 32 32 32 33 31 28 29 29 27 25 27 25 23 24 22 23 22 25 24 24 22 20 20 20 20 22
47 45 43 41 42 41 40 40 39 35 33 32 31 31 32 31 28 28 28 27 27 27 27 25 27 27 23 24 24 24 24 23 21 20 19 19 19 20
44 44 43 41 41 40 40 39 36 35 34 33 32 31 30 29 28 27 26 27 25 26 28 27 28 26 28 27 26 25 25 23 22 21 19 20 20 20
43 42 41 41 41 40 38 36 35 35 33 32 31 30 30 29 27 27 26 25 21 24 24 26 27 27 28 27 25 25 23 23 22 21 20 19 18 18
42 40 40 40 40 39 37 36 34 35 33 32 31 30 30 29 27 27 27 23 24 24 24 23 24 24 25 25 27 23 23 22 22 20 20 17 17 17
41 40 39 39 39 38 38 36 34 34 33 32 31 30 30 29 28 27 27 26 25 25 25 26 25 25 24 24 23 24 22 21 20 19 19 19 17 18
41 40 39 39 39 38 38 37 35 33 32 32 31 31 30 30 28 27 27 27 26 26 25 26 27 27 28 26 22 22 19 21 20 19 19 19 20 20
42 41 40 40 39 38 38 37 35 34 33 32 32 31 31 31 29 29 28 29 27 25 24 25 28 29 25 25 22 19 22 21 20 21 20 18 16 16
40 41 40 40 39 39 38 36 35 34 33 33 32 32 32 32 30 30 29 28 27 26 26 27 26 25 24 25 22 20 20 20 20 20 20 20 16 11
41 41 40 40 40 39 38 37 35 34 34 33 33 32 32 31 31 30 30 29 28 26 25 23 23 24 22 23 21 20 18 18 18 18 18 18 17 18
Lifted_Index
2 2 3 4 6 7 8 8 10 11 12 12 13 14 14 15 14 14 14 14 14 14 14 15 17 18 18 18 18 18 18 19 20 20 20 20 20 20
1 2 3 4 5 7 8 9 10 11 11 12 13 14 14 14 14 14 14 14 14 14 15 16 18 19 19 18 18 18 18 19 20 20 21 21 21 21
1 2 2 3 4 6 7 9 10 11 11 12 13 13 14 14 14 15 15 15 15 15 15 17 18 19 19 19 18 18 19 19 20 21 22 22 22 22
1 2 2 3 4 5 7 9 10 11 11 12 12 13 13 14 15 15 15 16 16 16 16 17 19 20 20 20 19 19 19 20 21 22 23 23 23 23
1 2 2 3 3 5 7 8 10 11 11 12 12 12 13 14 14 15 15 16 16 16 16 17 19 20 20 20 20 20 20 20 21 22 23 23 24 23
1 1 2 2 3 4 6 8 9 10 12 12 12 12 13 13 14 15 15 16 16 16 17 17 18 20 21 21 21 21 20 20 21 22 23 24 24 24
1 1 1 2 2 4 6 7 8 10 12 12 12 12 12 13 14 15 15 16 16 16 17 17 18 19 20 21 21 21 21 20 21 22 23 24 24 24
2 1 1 1 2 4 6 7 8 10 11 12 12 12 12 13 14 14 15 15 15 16 17 17 18 19 20 21 22 22 21 21 21 22 23 24 24 24
2 2 1 1 2 4 6 7 8 10 12 12 12 12 12 13 14 15 15 14 15 16 16 17 17 18 20 21 21 22 21 21 21 21 23 24 24 24
3 3 1 1 2 4 6 7 8 10 12 12 12 12 13 14 15 15 15 15 15 16 16 16 17 18 19 20 21 21 22 21 21 21 22 23 24 24
4 3 2 1 2 4 5 6 8 10 11 13 13 13 14 14 16 16 16 15 15 16 16 16 16 17 18 19 20 21 21 21 20 20 21 23 24 24
4 3 2 1 2 4 5 6 7 9 11 13 14 15 15 16 17 17 17 16 15 15 16 16 16 16 16 17 19 20 21 20 19 19 21 23 24 24
4 3 3 2 2 4 5 5 6 8 10 13 15 16 16 17 17 17 17 16 16 16 16 16 16 16 15 15 17 18 19 19 18 19 21 23 24 23
3 3 3 3 2 3 5 5 6 8 9 12 14 15 15 16 16 17 17 17 17 17 17 17 16 16 15 15 15 16 17 17 17 19 21 23 23 23
3 3 3 3 2 3 4 5 6 7 8 9 11 12 14 15 16 16 17 17 17 17 18 18 17 17 16 15 15 14 15 16 17 19 21 23 23 23
4 4 3 3 2 3 4 5 6 6 7 7 8 9 12 14 15 16 16 15 15 16 17 18 18 18 17 16 15 14 14 15 17 20 21 22 22 23
4 4 3 3 3 3 4 5 5 6 7 7 7 8 10 13 14 15 15 14 14 14 15 17 18 18 18 17 15 14 14 15 17 20 21 22 22 22
4 4 4 3 3 3 3 4 4 5 6 6 6 7 8 11 13 14 14 13 13 14 15 15 16 16 16 16 16 15 14 16 18 20 21 21 22 22
4 4 4 4 4 4 3 3 4 4 5 5 5 6 7 9 11 12 12 11 11 13 14 15 15 14 14 14 14 15 16 16 18 19 21 21 22 22
4 4 4 4 4 4 4 3 3 4 4 4 5 5 6 7 9 10 11 10 11 12 14 15 15 14 13 13 13 15 17 18 19 20 21 21 22 22
4 4 4 5 5 5 4 4 4 3 4 4 4 4 5 6 7 9 9 10 11 12 14 15 14 14 15 14 14 15 17 20 21 22 22 22 21 21
4 4 5 5 5 5 5 5 4 4 4 4 4 4 4 5 6 7 9 9 11 13 15 15 14 14 15 15 14 14 16 19 22 23 23 22 21 21
4 4 5 5 6 6 6 5 5 4 4 4 4 4 4 5 5 7 8 10 12 14 15 15 14 14 14 15 15 15 16 18 21 22 23 23 22 22